Location: Cz?stochówka
(50.8142°N, 19.0915°E)
Time: 10:36:57
(UTC+00:00)

FengYun 1-2 T - Pass Details

Date: 13 January 2026
Orbit: 844 x 880 km, 98.8° (Epoch: 10 February)

Event Time Altitude Azimuth Distance (km) Brightness Sun altitude
Rises 03:56:00 0° 13° (NNE) 3,470 7.5 -25.3°
Reaches altitude 10° 03:58:24 10° 12° (NNE) 2,523 6.7 -24.9°
Maximum altitude 04:03:58 70° 290° (WNW) 917 4.1 -24.0°
Enters shadow 04:06:55 29° 213° (SSW) 1,541 5.3 -23.5°
